{"data":{"norad_id":55461,"epoch":"2026-05-25T00:09:30.214944Z","epoch_age_seconds":74164,"freshness":"FRESH","line1":"1 55461U 23015N   26145.00659971 -.00000606  00000+0 -12485-4 0  9994","line2":"2 55461  42.9988 257.7323 0001334 266.1062  93.9637 15.27584372182390","mean_motion":15.27584372,"eccentricity":0.0001334,"inclination_deg":42.9988,"raan_deg":257.7323,"arg_perigee_deg":266.1062,"mean_anomaly_deg":93.9637,"bstar":-1.2485e-5,"rev_number":18239,"period_min":94.266478918914,"perigee_km":482.12072425123,"apogee_km":483.95128520889,"semimajor_km":6861.1730047301,"source":"CELESTRAK","updated_at":"2026-05-25T13:38:17.804774Z"}}